Location: Chantarel
(45.1638°N, 1.7873°E)
Time: 13:05:42
(UTC+00:00)

Cosmos 2322 - Pass Details

Date: 03 March 2021
Orbit: 841 x 853 km, 71.0° (Epoch: 11 April)

Event Time Altitude Azimuth Distance (km) Brightness Sun altitude
Rises 19:42:36 0° 201° (SSW) 3,408 7.0 -21.8°
Reaches altitude 10° 19:45:02 10° 201° (SSW) 2,476 6.2 -22.2°
Maximum altitude 19:50:44 84° 113° (ESE) 864 3.6 -23.1°
Drops below altitude 10° 19:56:28 10° 27° (NNE) 2,491 6.0 -24.1°
Sets 19:58:56 0° 27° (NNE) 3,429 6.8 -24.5°
